Flight Track Log - Related Links

Times and Time Zones

All times are in EDT time to prevent confusion due to time zone crossing. See the SWA499 flight status page for this flight to view local times or setup timezone preferences in your user account.

Time Position Orientation Groundspeed Altitude Reporting Facility
EDT Latitude Longitude Course Direction KTS MPH feet Rate Location/Type
Fri 10:52:43 PM 39.5167 -119.7667 180° South 176 203 5,500  Level Northern Cal TRACON
Fri 10:53:37 PM 39.5667 -119.7833 346° North 223 257 7,400 2,842 Climbing Northern Cal TRACON
Fri 10:54:37 PM 39.6333 -119.7833 360° North 270 311 10,900 3,383 Climbing Northern Cal TRACON
Fri 10:55:11 PM 39.6606 -119.7358 53° Northeast 288 331 12,700 2,589 Climbing Oakland Center
Fri 10:56:12 PM 39.5969 -119.6694 141° Southeast 342 394 15,000 2,262 Climbing Oakland Center
Fri 10:57:13 PM 39.4994 -119.6567 174° South 354 407 17,300 2,537 Climbing Oakland Center
Fri 10:58:00 PM 39.1005 -119.6333 180° South  Level FlightAware Approximate
Fri 10:58:15 PM 39.3917 -119.6536 179° South 380 437 20,200  Level Oakland Center
Fri 10:59:16 PM 39.2806 -119.6508 179° South 395 455 23,300 2,705 Climbing Oakland Center
Fri 11:00:17 PM 39.1675 -119.6475 179° South 402 463 25,700 2,459 Climbing Oakland Center
Fri 11:01:18 PM 39.0531 -119.6453 179° South 408 470 28,300 1,610 Climbing Oakland Center
Fri 11:02:20 PM 38.9122 -119.6411 179° South 420 483 29,000 439 Climbing Oakland Center
Fri 11:03:21 PM 38.7933 -119.6372 179° South 426 490 29,200 934 Climbing Oakland Center
Fri 11:04:22 PM 38.6692 -119.6356 179° South 439 505 30,900 1,574 Climbing Oakland Center
Fri 11:05:23 PM 38.5417 -119.6319 179° South 452 520 32,400 1,415 Climbing Oakland Center
Fri 11:06:25 PM 38.4089 -119.6283 179° South 464 534 33,800 1,854 Climbing Oakland Center
Fri 11:07:26 PM 38.2769 -119.6247 179° South 472 543 36,200 1,574 Climbing Oakland Center
Fri 11:08:27 PM 38.1528 -119.6214 179° South 447 514 37,000 393 Climbing Oakland Center
Fri 11:09:28 PM 38.0267 -119.6192 179° South 451 519 37,000 146 Level Oakland Center
Fri 11:10:30 PM 37.9028 -119.6158 179° South 448 516 37,300 829 Climbing Oakland Center
Fri 11:11:31 PM 37.7772 -119.6136 179° South 448 516 38,700 836 Climbing Oakland Center
Fri 11:12:32 PM 37.6539 -119.6097 179° South 447 514 39,000 148 Climbing Oakland Center
Fri 11:13:33 PM 37.5047 -119.6064 179° South 445 512 39,000  Level Oakland Center
Fri 11:14:35 PM 37.3817 -119.6022 178° South 444 511 39,000  Level Oakland Center
Fri 11:15:36 PM 37.2683 -119.5994 179° South 443 510 39,000  Level Oakland Center
Fri 11:16:37 PM 37.1444 -119.5978 179° South 444 511 39,000  Level Oakland Center
Fri 11:17:39 PM 37.0222 -119.5958 179° South 443 510 39,000  Level Oakland Center
Fri 11:18:40 PM 36.8997 -119.6000 182° South 441 507 39,000  Level Oakland Center
Fri 11:19:41 PM 36.7458 -119.6036 181° South 458 527 39,000  Level Oakland Center
Fri 11:20:42 PM 36.6164 -119.6053 181° South 460 529 39,000  Level Oakland Center
Fri 11:21:44 PM 36.4872 -119.6072 181° South 462 532 39,000  Level Oakland Center
Fri 11:22:45 PM 36.3592 -119.6094 181° South 462 532 39,000  Level Oakland Center
Fri 11:23:46 PM 36.2311 -119.6114 181° South 460 529 39,000  Level Oakland Center
Fri 11:24:47 PM 36.1036 -119.6131 181° South 459 528 39,000  Level Oakland Center
Fri 11:25:48 PM 35.9761 -119.6161 181° South 458 527 39,000  Level Oakland Center
Fri 11:26:49 PM 35.8489 -119.6203 182° South 456 525 39,000  Level Oakland Center
Fri 11:27:51 PM 35.7222 -119.6253 182° South 455 524 39,000  Level Oakland Center
Fri 11:28:52 PM 35.5958 -119.6303 182° South 453 521 39,000  Level Oakland Center
Fri 11:29:53 PM 35.4678 -119.6339 181° South 454 522 39,000 -443 Level Oakland Center
Fri 11:30:54 PM 35.3425 -119.6386 182° South 453 521 38,100 -1,377 Descending Oakland Center
Fri 11:31:55 PM 35.2217 -119.6111 169° South 452 520 36,200 -1,475 Descending Oakland Center
Fri 11:32:56 PM 35.0894 -119.5000 145° Southeast 475 547 35,100 -1,805 Descending Oakland Center
Fri 11:33:58 PM 34.9792 -119.4042 145° Southeast 479 551 32,500 -2,976 Descending Oakland Center
Fri 11:34:59 PM 34.8681 -119.3094 145° Southeast 484 557 29,000 -3,148 Descending Oakland Center
Fri 11:36:00 PM 34.7567 -119.2156 145° Southeast 484 557 26,100 -2,779 Descending Oakland Center
Fri 11:37:15 PM 34.6217 -119.1025 145° Southeast 476 548 22,700 -2,715 Descending Los Angeles Center
Fri 11:38:17 PM 34.5153 -119.0119 145° Southeast 445 512 19,900 -2,565 Descending Los Angeles Center
Fri 11:39:19 PM 34.4175 -118.9331 146° Southeast 432 497 17,400 -2,468 Descending Los Angeles Center
Fri 11:40:21 PM 34.3161 -118.8669 152° Southeast 414 476 14,800 -2,613 Descending Los Angeles Center
Fri 11:41:23 PM 34.1886 -118.8197 163° South 400 460 12,000 -1,854 Descending Los Angeles Center
Fri 11:42:24 PM 34.0939 -118.7842 163° South 359 413 11,000 -585 Descending Los Angeles Center
Fri 11:43:26 PM 34.0347 -118.7147 136° Southeast 298 343 10,800 -581 Descending Los Angeles Center
Fri 11:44:28 PM 34.0258 -118.6211 97° East 278 320 9,800 -1,024 Descending Los Angeles Center
Fri 11:45:29 PM 34.0167 -118.5297 97° East 275 316 8,700 -1,024 Descending Los Angeles Center
Fri 11:46:31 PM 34.0119 -118.4481 94° East 265 305 7,700 -919 Descending Los Angeles Center
Fri 11:47:33 PM 34.0267 -118.3647 78° East 256 295 6,800 -878 Descending Los Angeles Center
Fri 11:48:34 PM 34.0389 -118.2892 79° East 237 273 5,900 -1,024 Descending Los Angeles Center
Fri 11:49:36 PM 34.0425 -118.2233 86° East 222 255 4,700 -1,306 Descending Los Angeles Center
Fri 11:50:38 PM 33.9819 -118.2222 179° South 213 245 3,200 -1,171 Descending Los Angeles Center
Fri 11:51:39 PM 33.9644 -118.2769 249° West 189 217 2,300 -976 Descending Los Angeles Center
Fri 11:52:41 PM 33.9592 -118.3344 264° West 181 208 1,200 -823 Descending Los Angeles Center
Fri 11:53:43 PM 33.9561 -118.3767 265° West 146 168 600 -484 Descending Los Angeles Center
Fri 11:54:45 PM 33.9503 -118.4256 262° West 138 159 200 -387 Descending Los Angeles Center
Fri 11:56:00 PM 33.9425 -118.4081 90° East  Level Estimated

Login

Don't have an account? Register now (free) for customized features, flight alerts, and more!